TimeCEST,TemperatureF,Dew PointF,Humidity,Sea Level PressureIn,VisibilityMPH,Wind Direction,Wind SpeedMPH,Gust SpeedMPH,PrecipitationIn,Events,Conditions,WindDirDegrees,DateUTC
12:15 AM,69.8,64.4,83,30.21,-9999.0,South,2.3,-,N/A,,Clear,170,2013-09-02 22:15:00
12:45 AM,68.0,62.6,83,30.21,-9999.0,Variable,1.2,-,N/A,,Clear,0,2013-09-02 22:45:00
1:15 AM,68.0,62.6,83,30.21,-9999.0,Variable,2.3,-,N/A,,Clear,0,2013-09-02 23:15:00
1:45 AM,66.2,62.6,88,30.18,-9999.0,SE,1.2,-,N/A,,Clear,140,2013-09-02 23:45:00
2:00 AM,67,62,79,30.21,12,SE,1.2,,,,,140,2013-09-03 00:00:00
2:15 AM,66.2,60.8,83,30.18,-9999.0,ENE,3.5,-,N/A,,Clear,70,2013-09-03 00:15:00
2:45 AM,66.2,62.6,88,30.18,-9999.0,East,3.5,-,N/A,,Clear,80,2013-09-03 00:45:00
3:15 AM,66.2,62.6,88,30.18,-9999.0,East,3.5,-,N/A,,Clear,90,2013-09-03 01:15:00
3:45 AM,66.2,62.6,88,30.18,-9999.0,East,3.5,-,N/A,,Clear,90,2013-09-03 01:45:00
4:15 AM,64.4,62.6,94,30.18,-9999.0,ESE,3.5,-,N/A,,Clear,110,2013-09-03 02:15:00
4:45 AM,64.4,62.6,94,30.18,-9999.0,ESE,3.5,-,N/A,,Clear,110,2013-09-03 02:45:00
5:15 AM,64.4,62.6,94,30.18,-9999.0,East,3.5,-,N/A,,Clear,100,2013-09-03 03:15:00
5:45 AM,64.4,60.8,88,30.18,-9999.0,Variable,1.2,-,N/A,,Clear,0,2013-09-03 03:45:00
6:15 AM,62.6,60.8,94,30.18,-9999.0,SE,4.6,-,N/A,,Clear,140,2013-09-03 04:15:00
6:45 AM,60.8,59.0,94,30.21,-9999.0,SE,4.6,-,N/A,,Clear,140,2013-09-03 04:45:00
7:15 AM,62.6,59.0,88,30.21,-9999.0,SSE,4.6,-,N/A,,Clear,150,2013-09-03 05:15:00
7:45 AM,64.4,60.8,88,30.21,-9999.0,ESE,4.6,-,N/A,,Clear,120,2013-09-03 05:45:00
8:15 AM,64.4,60.8,88,30.21,-9999.0,SE,4.6,-,N/A,,Clear,130,2013-09-03 06:15:00
8:45 AM,69.8,60.8,73,30.21,-9999.0,ESE,4.6,-,N/A,,Clear,120,2013-09-03 06:45:00
9:15 AM,69.8,60.8,73,30.21,-9999.0,ESE,4.6,-,N/A,,Clear,110,2013-09-03 07:15:00
9:45 AM,73.4,60.8,65,30.21,-9999.0,East,4.6,-,N/A,,Clear,100,2013-09-03 07:45:00
11:15 AM,78.8,59.0,51,30.21,-9999.0,East,5.8,-,N/A,,Clear,90,2013-09-03 09:15:00
11:45 AM,80.6,57.2,45,30.21,-9999.0,ESE,4.6,-,N/A,,Clear,110,2013-09-03 09:45:00
12:15 PM,82.4,55.4,39,30.21,-9999.0,North,4.6,-,N/A,,Clear,10,2013-09-03 10:15:00
12:45 PM,84.2,55.4,37,30.21,-9999.0,NE,3.5,-,N/A,,Clear,40,2013-09-03 10:45:00
1:15 PM,84.2,55.4,37,30.21,-9999.0,NNW,3.5,-,N/A,,Clear,330,2013-09-03 11:15:00
1:45 PM,86.0,55.4,35,30.21,-9999.0,West,4.6,-,N/A,,Clear,280,2013-09-03 11:45:00
2:00 PM,86,53,22,30.22,12,West,4.6,,,,,280,2013-09-03 12:00:00
2:15 PM,87.8,57.2,35,30.21,-9999.0,NW,6.9,-,N/A,,Clear,310,2013-09-03 12:15:00
3:15 PM,87.8,59.0,38,30.18,-9999.0,WNW,10.4,-,N/A,,Clear,300,2013-09-03 13:15:00
3:45 PM,86.0,57.2,37,30.18,-9999.0,WNW,12.7,-,N/A,,Clear,300,2013-09-03 13:45:00
4:15 PM,84.2,57.2,40,30.18,-9999.0,WNW,12.7,-,N/A,,Clear,300,2013-09-03 14:15:00
4:45 PM,84.2,57.2,40,30.15,-9999.0,NW,12.7,-,N/A,,Clear,310,2013-09-03 14:45:00
5:15 PM,84.2,57.2,40,30.15,-9999.0,NW,12.7,-,N/A,,Clear,320,2013-09-03 15:15:00
5:45 PM,82.4,57.2,42,30.15,-9999.0,NNW,13.8,-,N/A,,Clear,330,2013-09-03 15:45:00
6:15 PM,82.4,59.0,45,30.15,-9999.0,NNW,12.7,-,N/A,,Clear,330,2013-09-03 16:15:00
6:45 PM,80.6,59.0,48,30.15,-9999.0,NW,10.4,-,N/A,,Clear,320,2013-09-03 16:45:00
7:15 PM,78.8,60.8,54,30.15,-9999.0,NW,10.4,-,N/A,,Clear,320,2013-09-03 17:15:00
7:45 PM,77.0,64.4,65,30.15,-9999.0,NW,9.2,-,N/A,,Clear,320,2013-09-03 17:45:00
8:00 PM,77,65,57,30.18,16,NW,9.2,,,,,320,2013-09-03 18:00:00
8:15 PM,77.0,66.2,69,30.15,-9999.0,NW,3.5,-,N/A,,Clear,320,2013-09-03 18:15:00
8:45 PM,75.2,66.2,73,30.18,-9999.0,NW,4.6,-,N/A,,Clear,310,2013-09-03 18:45:00
9:15 PM,73.4,68.0,83,30.18,-9999.0,WNW,1.2,-,N/A,,Clear,300,2013-09-03 19:15:00
9:45 PM,73.4,68.0,83,30.18,-9999.0,WNW,4.6,-,N/A,,Clear,300,2013-09-03 19:45:00
10:15 PM,73.4,68.0,83,30.18,-9999.0,West,2.3,-,N/A,,Clear,270,2013-09-03 20:15:00
10:45 PM,71.6,64.4,78,30.18,-9999.0,SW,2.3,-,N/A,,Clear,220,2013-09-03 20:45:00
11:15 PM,69.8,64.4,83,30.18,-9999.0,WSW,2.3,-,N/A,,Clear,240,2013-09-03 21:15:00
11:45 PM,68.0,66.2,94,30.18,-9999.0,WSW,1.2,-,N/A,,Clear,240,2013-09-03 21:45:00